Location: Trenton
(45.6167°N, 62.6167°W)
Time: 03:14:01
(UTC+00:00)

Nauka - Pass Details

Date: 02 October 2021
Orbit: 417 x 423 km, 51.6° (Epoch: 24 October)

Event Time Altitude Azimuth Distance (km) Brightness Sun altitude
Rises 23:44:13 0° 295° (WNW) 2,366 ? -20.9°
Reaches altitude 10° 23:46:22 10° 289° (WNW) 1,500 ? -21.3°
Enters shadow 23:49:27 42° 224° (SW) 614 ? -21.8°
